Danville, VA

7:55 AM EDT on April 24, 2018 (GMT -0400)
Danville Regional

Weather History for KDAN - October, 2011

Change the Weather History Date:

Friday, October 14, 2011

  Actual Average Record
Temperature  
Mean Temperature 60 °F 60 °F  
Max Temperature 72 °F 70 °F 86 °F (1954)
Min Temperature 48 °F 50 °F 28 °F (1988)
Degree Days  
Heating Degree Days 5 6  
Month to date heating degree days 86 63  
Since 1 July heating degree days 107 91  
Cooling Degree Days 0 1  
Month to date cooling degree days 4 21  
Year to date cooling degree days 1561 1424  
Growing Degree Days 10 (Base 50)    
Moisture  
Dew Point 54 °F    
Average Humidity 66    
Maximum Humidity 100    
Minimum Humidity 31    
Precipitation  
Precipitation 0.24 in 0.12 in 2.20 in (1986)
Month to date precipitation 1.25 1.60  
Year to date precipitation 29.64 35.85  
Snow  
Snow 0.00 in - - ()
Month to date snowfall 0.0  
Since 1 July snowfall 0.0  
Since 1 September snowfall 0.0  
Snow Depth 0.00 in    
Sea Level Pressure  
Sea Level Pressure 29.62 in    
Wind  
Wind Speed 9 mph (WSW)    
Max Wind Speed 25 mph    
Max Gust Speed 35 mph    
Visibility 8 miles    
Events Rain , Thunderstorm    
T = Trace of Precipitation, MM = Missing Value Source: NWS Daily Summary

Daily Weather History Graph

Daily Weather History Graph

Search for Another Location

Airport or City:

Astronomy

Oct. 14, 2011 Rise Set
Actual Time 7:23 AM EDT 6:42 PM EDT
Civil Twilight 6:57 AM EDT 7:08 PM EDT
Nautical Twilight 6:27 AM EDT 7:38 PM EDT
Astronomical Twilight 5:57 AM EDT 8:08 PM EDT
Moon 8:01 PM EDT (10/14) 9:44 AM EDT (10/14)
Length of Visible Light 12h 11m
Length of Day
11h 19m
Waning Gibbous, 94% of the Moon is Illuminated
Oct 14
Waning Gibbous
Oct 19
Last Quarter
Oct 26
New
Nov 2
First Quarter
Nov 10
Full

Hourly Weather History & Observations

Time (EDT) Temp. Dew Point Humidity Pressure Visibility Wind Dir Wind Speed Gust Speed Precip Events Conditions
12:53 AM 60.1 °F 59.0 °F 96% 29.57 in 9.0 mi West 6.9 mph - 0.01 in   Clear
1:53 AM 61.0 °F 60.1 °F 97% 29.56 in 9.0 mi SSW 3.5 mph - N/A   Partly Cloudy
2:53 AM 61.0 °F 60.1 °F 97% 29.55 in 6.0 mi SSW 5.8 mph - 0.01 in Rain Light Rain
3:14 AM 60.8 °F 60.8 °F 100% 29.57 in 6.0 mi SSW 3.5 mph - 0.01 in Rain , Thunderstorm Light Rain
3:22 AM 60.8 °F 60.8 °F 100% 29.57 in 7.0 mi South 3.5 mph - 0.01 in Rain , Thunderstorm Light Rain
3:31 AM 60.8 °F 60.8 °F 100% 29.57 in 7.0 mi Calm Calm - 0.01 in Rain Light Rain
3:43 AM 60.8 °F 60.8 °F 100% 29.57 in 7.0 mi Calm Calm - 0.01 in Rain Light Rain
3:53 AM 61.0 °F 61.0 °F 100% 29.54 in 6.0 mi SSW 3.5 mph - 0.02 in   Overcast
4:02 AM 60.8 °F 60.8 °F 100% 29.56 in 1.8 mi SW 4.6 mph - 0.08 in Rain Heavy Rain
4:09 AM 60.8 °F 60.8 °F 100% 29.56 in 2.0 mi SSW 5.8 mph - 0.09 in Rain , Thunderstorm Light Rain
4:17 AM 60.8 °F 60.8 °F 100% 29.55 in 8.0 mi SSW 5.8 mph - 0.09 in Rain , Thunderstorm Light Rain
4:21 AM 60.8 °F 60.8 °F 100% 29.55 in 8.0 mi SSW 5.8 mph - 0.09 in Rain Light Rain
4:53 AM 61.0 °F 61.0 °F 100% 29.54 in 8.0 mi WSW 5.8 mph - 0.09 in   Mostly Cloudy
4:58 AM 60.8 °F 60.8 °F 100% 29.56 in 8.0 mi SW 3.5 mph - N/A   Overcast
5:17 AM 60.8 °F 60.8 °F 100% 29.57 in 2.5 mi WSW 8.1 mph - 0.05 in Rain , Thunderstorm Heavy Rain
5:35 AM 60.8 °F 60.8 °F 100% 29.57 in 7.0 mi West 6.9 mph - 0.11 in Rain , Thunderstorm Light Thunderstorms and Rain
5:53 AM 60.1 °F 59.0 °F 96% 29.55 in 10.0 mi WSW 8.1 mph - 0.11 in Rain Light Rain
6:53 AM 59.0 °F 57.9 °F 96% 29.55 in 10.0 mi WSW 8.1 mph - 0.01 in   Mostly Cloudy
7:53 AM 59.0 °F 57.9 °F 96% 29.57 in 10.0 mi WSW 6.9 mph - N/A   Overcast
8:10 AM 59.0 °F 57.2 °F 94% 29.60 in 10.0 mi SW 5.8 mph - N/A   Overcast
8:53 AM 60.1 °F 57.9 °F 93% 29.60 in 10.0 mi WSW 9.2 mph - N/A   Overcast
9:53 AM 63.0 °F 59.0 °F 87% 29.61 in 10.0 mi WSW 13.8 mph 19.6 mph 0.00 in   Partly Cloudy
10:53 AM 64.9 °F 54.0 °F 68% 29.62 in 10.0 mi West 16.1 mph 21.9 mph N/A   Clear
11:53 AM 66.2 °F 50.0 °F 56% 29.66 in 10.0 mi West 20.7 mph 26.5 mph N/A   Partly Cloudy
12:53 PM 70.0 °F 46.0 °F 42% 29.63 in 10.0 mi West 20.7 mph 25.3 mph N/A   Partly Cloudy
1:53 PM 71.1 °F 42.1 °F 35% 29.63 in 10.0 mi West 19.6 mph 26.5 mph N/A   Clear
2:53 PM 71.6 °F 42.8 °F 35% 29.65 in 10.0 mi West 10.4 mph 19.6 mph N/A   Mostly Cloudy
3:53 PM 71.1 °F 39.0 °F 31% 29.63 in 10.0 mi West 19.6 mph 29.9 mph N/A   Partly Cloudy
4:53 PM 70.0 °F 39.9 °F 33% 29.64 in 10.0 mi West 11.5 mph 21.9 mph N/A   Clear
5:53 PM 68.0 °F 41.0 °F 37% 29.67 in 10.0 mi WSW 11.5 mph - N/A   Clear
6:53 PM 60.1 °F 44.1 °F 55% 29.70 in 10.0 mi Calm Calm - N/A   Clear
7:53 PM 52.0 °F 48.0 °F 86% 29.73 in 10.0 mi SW 3.5 mph - N/A   Clear
8:53 PM 54.0 °F 46.0 °F 75% 29.76 in 10.0 mi WSW 3.5 mph - N/A   Clear
9:53 PM 51.1 °F 46.0 °F 83% 29.78 in 10.0 mi WSW 3.5 mph - N/A   Clear
10:53 PM 48.9 °F 46.0 °F 90% 29.80 in 10.0 mi Calm Calm - N/A   Clear
11:53 PM 48.9 °F 45.0 °F 86% 29.81 in 10.0 mi SSW 4.6 mph - N/A   Clear